Time,TemperatureF,DewpointF,PressureIn,WindDirection,WindDirectionDegrees,WindSpeedMPH,WindSpeedGustMPH,Humidity,HourlyPrecipIn,Conditions,Clouds,dailyrainin,SoftwareType,DateUTC
2013-01-25 00:03:00,16.0,6.0,-100.00,SE,145,4.0,7.0,65,0.00,,,-99.99,,2013-01-25 05:03:00,
2013-01-25 00:12:00,16.0,6.0,-100.00,SSE,150,4.0,8.0,64,0.00,,,-99.99,,2013-01-25 05:12:00,
2013-01-25 00:22:00,16.0,6.0,-100.00,SE,140,2.0,7.0,64,0.00,,,-99.99,,2013-01-25 05:22:00,
2013-01-25 00:32:00,16.0,6.0,-100.00,SSE,150,4.0,6.0,64,0.00,,,-99.99,,2013-01-25 05:32:00,
2013-01-25 00:43:00,16.0,6.0,-100.00,SE,145,4.0,6.0,64,0.00,,,-99.99,,2013-01-25 05:43:00,
2013-01-25 00:52:00,16.0,6.0,-100.00,SSE,155,4.0,7.0,64,0.00,,,-99.99,,2013-01-25 05:52:00,
2013-01-25 01:02:00,16.0,6.0,-100.00,SE,145,5.0,7.0,63,0.00,,,-99.99,,2013-01-25 06:02:00,
2013-01-25 01:11:00,16.0,6.0,-100.00,SE,145,4.0,7.0,63,0.00,,,-99.99,,2013-01-25 06:11:00,
2013-01-25 01:21:00,16.0,6.0,-100.00,SE,140,3.0,6.0,63,0.00,,,-99.99,,2013-01-25 06:21:00,
2013-01-25 01:32:00,16.0,6.0,-100.00,SE,130,1.0,6.0,64,0.00,,,-99.99,,2013-01-25 06:32:00,
2013-01-25 01:42:00,16.0,6.0,-100.00,SE,135,2.0,6.0,64,0.00,,,-99.99,,2013-01-25 06:42:00,
2013-01-25 01:52:00,16.0,6.0,-100.00,SE,145,4.0,6.0,63,0.00,,,-99.99,,2013-01-25 06:52:00,
2013-01-25 02:02:00,16.0,6.0,-100.00,East,85,2.0,5.0,64,0.00,,,-99.99,,2013-01-25 07:02:00,
2013-01-25 02:11:00,16.0,6.0,-100.00,East,95,2.0,4.0,65,0.00,,,-99.99,,2013-01-25 07:11:00,
2013-01-25 02:21:00,16.0,6.0,-100.00,SE,145,2.0,6.0,65,0.00,,,-99.99,,2013-01-25 07:21:00,
2013-01-25 02:32:00,16.0,6.0,-100.00,SSE,155,4.0,6.0,63,0.00,,,-99.99,,2013-01-25 07:32:00,
2013-01-25 02:42:00,16.0,6.0,-100.00,SE,125,3.0,6.0,63,0.00,,,-99.99,,2013-01-25 07:42:00,
2013-01-25 02:51:00,16.0,6.0,-100.00,SE,145,2.0,4.0,64,0.00,,,-99.99,,2013-01-25 07:51:00,
2013-01-25 03:02:00,16.0,6.0,-100.00,SE,140,1.0,4.0,65,0.00,,,-99.99,,2013-01-25 08:02:00,
2013-01-25 03:11:00,16.0,6.0,-100.00,SE,130,3.0,6.0,65,0.00,,,-99.99,,2013-01-25 08:11:00,
2013-01-25 03:21:00,16.0,6.0,-100.00,East,90,3.0,6.0,65,0.00,,,-99.99,,2013-01-25 08:21:00,
2013-01-25 03:32:00,16.0,7.0,-100.00,SE,125,3.0,6.0,66,0.00,,,-99.99,,2013-01-25 08:32:00,
2013-01-25 03:41:00,16.0,7.0,-100.00,SE,140,2.0,6.0,66,0.00,,,-99.99,,2013-01-25 08:41:00,
2013-01-25 03:52:00,16.0,7.0,-100.00,SE,140,4.0,7.0,67,0.00,,,-99.99,,2013-01-25 08:52:00,
2013-01-25 04:02:00,16.0,7.0,-100.00,SE,140,5.0,9.0,66,0.00,,,-99.99,,2013-01-25 09:02:00,
2013-01-25 04:11:00,16.0,7.0,-100.00,SE,140,4.0,7.0,66,0.00,,,-99.99,,2013-01-25 09:11:00,
2013-01-25 04:21:00,16.0,7.0,-100.00,SE,135,5.0,7.0,66,0.00,,,-99.99,,2013-01-25 09:21:00,
2013-01-25 04:32:00,16.0,7.0,-100.00,SE,140,6.0,9.0,66,0.00,,,-99.99,,2013-01-25 09:32:00,
2013-01-25 04:42:00,16.0,7.0,-100.00,SE,140,4.0,9.0,66,0.00,,,-99.99,,2013-01-25 09:42:00,
2013-01-25 04:51:00,16.0,7.0,-100.00,SE,140,4.0,8.0,66,0.00,,,-99.99,,2013-01-25 09:51:00,
2013-01-25 05:02:00,16.0,7.0,-100.00,SE,130,6.0,9.0,67,0.00,,,-99.99,,2013-01-25 10:02:00,
2013-01-25 05:12:00,16.0,7.0,-100.00,SE,135,6.0,10.0,67,0.00,,,-99.99,,2013-01-25 10:12:00,
2013-01-25 05:21:00,16.0,7.0,-100.00,East,90,4.0,7.0,67,0.00,,,-99.99,,2013-01-25 10:21:00,
2013-01-25 05:32:00,16.0,7.0,-100.00,East,95,4.0,9.0,68,0.00,,,-99.99,,2013-01-25 10:32:00,
2013-01-25 05:42:00,16.0,7.0,-100.00,ESE,115,5.0,10.0,68,0.00,,,-99.99,,2013-01-25 10:42:00,
2013-01-25 05:51:00,16.0,8.0,-100.00,East,100,5.0,9.0,68,0.00,,,-99.99,,2013-01-25 10:51:00,
2013-01-25 06:03:00,16.0,8.0,-100.00,East,90,5.0,10.0,68,0.00,,,-99.99,,2013-01-25 11:03:00,
2013-01-25 06:11:00,16.0,8.0,-100.00,East,85,4.0,9.0,68,0.00,,,-99.99,,2013-01-25 11:11:00,
2013-01-25 06:22:00,16.0,8.0,-100.00,East,95,4.0,9.0,68,0.00,,,-99.99,,2013-01-25 11:22:00,
2013-01-25 06:33:00,16.0,8.0,-100.00,East,90,6.0,9.0,68,0.00,,,-99.99,,2013-01-25 11:33:00,
2013-01-25 06:42:00,16.0,8.0,-100.00,SE,140,6.0,9.0,69,0.00,,,-99.99,,2013-01-25 11:42:00,
2013-01-25 06:52:00,16.0,8.0,-100.00,ESE,120,7.0,9.0,69,0.00,,,-99.99,,2013-01-25 11:52:00,
2013-01-25 07:02:00,16.0,8.0,-100.00,SE,135,6.0,12.0,69,0.00,,,-99.99,,2013-01-25 12:02:00,
2013-01-25 07:12:00,17.0,8.0,-100.00,SE,135,7.0,12.0,69,0.00,,,-99.99,,2013-01-25 12:12:00,
2013-01-25 07:22:00,16.0,8.0,-100.00,SE,130,6.0,11.0,69,0.00,,,-99.99,,2013-01-25 12:22:00,
2013-01-25 07:32:00,17.0,8.0,-100.00,ESE,110,6.0,9.0,69,0.00,,,-99.99,,2013-01-25 12:32:00,
2013-01-25 07:42:00,17.0,8.0,-100.00,SE,125,4.0,10.0,69,0.00,,,-99.99,,2013-01-25 12:42:00,
2013-01-25 07:53:00,17.0,8.0,-100.00,SE,130,6.0,8.0,69,0.00,,,-99.99,,2013-01-25 12:53:00,
2013-01-25 08:03:00,17.0,8.0,-100.00,SE,130,6.0,9.0,69,0.00,,,-99.99,,2013-01-25 13:03:00,
2013-01-25 08:12:00,17.0,8.0,-100.00,SE,125,6.0,9.0,69,0.00,,,-99.99,,2013-01-25 13:12:00,
2013-01-25 08:22:00,17.0,8.0,-100.00,SE,130,6.0,10.0,70,0.00,,,-99.99,,2013-01-25 13:22:00,
2013-01-25 08:33:00,17.0,8.0,-100.00,ESE,105,6.0,9.0,70,0.00,,,-99.99,,2013-01-25 13:33:00,
2013-01-25 08:42:00,17.0,8.0,-100.00,East,95,6.0,12.0,69,0.00,,,-99.99,,2013-01-25 13:42:00,
2013-01-25 08:52:00,16.0,8.0,-100.00,ESE,120,6.0,9.0,69,0.00,,,-99.99,,2013-01-25 13:52:00,
2013-01-25 09:03:00,17.0,8.0,-100.00,SE,135,6.0,11.0,69,0.00,,,-99.99,,2013-01-25 14:03:00,
2013-01-25 09:12:00,17.0,8.0,-100.00,East,95,6.0,10.0,68,0.00,,,-99.99,,2013-01-25 14:12:00,
2013-01-25 09:23:00,17.0,8.0,-100.00,SE,125,7.0,12.0,67,0.00,,,-99.99,,2013-01-25 14:23:00,
2013-01-25 09:33:00,17.0,8.0,-100.00,ESE,120,6.0,10.0,67,0.00,,,-99.99,,2013-01-25 14:33:00,
2013-01-25 09:42:00,17.0,8.0,-100.00,SE,130,5.0,9.0,66,0.00,,,-99.99,,2013-01-25 14:42:00,
2013-01-25 09:52:00,17.0,8.0,-100.00,SE,140,7.0,12.0,65,0.00,,,-99.99,,2013-01-25 14:52:00,
2013-01-25 10:03:00,17.0,8.0,-100.00,SE,125,7.0,11.0,66,0.00,,,-99.99,,2013-01-25 15:03:00,
2013-01-25 10:12:00,17.0,8.0,-100.00,SE,145,6.0,11.0,65,0.00,,,-99.99,,2013-01-25 15:12:00,
2013-01-25 10:22:00,18.0,8.0,-100.00,SE,145,4.0,9.0,65,0.00,,,-99.99,,2013-01-25 15:22:00,
2013-01-25 10:32:00,17.0,9.0,-100.00,SE,145,9.0,12.0,70,0.00,,,-99.99,,2013-01-25 15:32:00,
2013-01-25 10:42:00,17.0,11.0,-100.00,SE,145,5.0,14.0,76,1.10,,,-99.99,,2013-01-25 15:42:00,
2013-01-25 10:52:00,17.0,11.0,-100.00,SE,145,7.0,14.0,80,0.00,,,-99.99,,2013-01-25 15:52:00,
2013-01-25 11:03:00,16.0,12.0,-100.00,SE,145,5.0,14.0,82,1.10,,,-99.99,,2013-01-25 16:03:00,
2013-01-25 11:12:00,16.0,12.0,-100.00,SE,145,6.0,11.0,83,0.55,,,-99.99,,2013-01-25 16:12:00,
2013-01-25 11:23:00,17.0,13.0,-100.00,SE,140,4.0,10.0,85,2.24,,,-99.99,,2013-01-25 16:23:00,
2013-01-25 11:33:00,17.0,13.0,-100.00,SE,135,6.0,9.0,86,1.10,,,-99.99,,2013-01-25 16:33:00,
2013-01-25 11:43:00,17.0,13.0,-100.00,SE,140,7.0,12.0,86,0.00,,,-99.99,,2013-01-25 16:43:00,
2013-01-25 11:52:00,17.0,14.0,-100.00,SE,140,5.0,8.0,87,1.10,,,-99.99,,2013-01-25 16:52:00,
2013-01-25 12:03:00,17.0,14.0,-100.00,East,95,2.0,8.0,87,0.55,,,-99.99,,2013-01-25 17:03:00,
2013-01-25 12:12:00,17.0,14.0,-100.00,SE,125,2.0,9.0,88,0.55,,,-99.99,,2013-01-25 17:12:00,
2013-01-25 12:22:00,17.0,14.0,-100.00,SE,145,5.0,9.0,87,0.55,,,-99.99,,2013-01-25 17:22:00,
2013-01-25 12:33:00,17.0,14.0,-100.00,ESE,105,4.0,13.0,86,0.55,,,-99.99,,2013-01-25 17:33:00,
2013-01-25 12:43:00,18.0,14.0,-100.00,SE,140,6.0,11.0,85,0.00,,,-99.99,,2013-01-25 17:43:00,
2013-01-25 12:52:00,18.0,15.0,-100.00,SE,135,3.0,7.0,85,0.55,,,-99.99,,2013-01-25 17:52:00,
2013-01-25 13:03:00,18.0,14.0,-100.00,SE,140,6.0,9.0,84,0.00,,,-99.99,,2013-01-25 18:03:00,
2013-01-25 13:12:00,18.0,14.0,-100.00,SSE,150,7.0,9.0,83,0.00,,,-99.99,,2013-01-25 18:12:00,
2013-01-25 13:23:00,19.0,14.0,-100.00,South,170,7.0,11.0,82,0.00,,,-99.99,,2013-01-25 18:23:00,
2013-01-25 13:33:00,19.0,14.0,-100.00,SSE,165,4.0,11.0,81,0.55,,,-99.99,,2013-01-25 18:33:00,
2013-01-25 13:42:00,19.0,15.0,-100.00,SSE,165,3.0,9.0,83,1.10,,,-99.99,,2013-01-25 18:42:00,
2013-01-25 13:52:00,19.0,14.0,-100.00,SE,140,2.0,11.0,82,0.00,,,-99.99,,2013-01-25 18:52:00,
2013-01-25 14:03:00,19.0,15.0,-100.00,SSE,165,3.0,9.0,82,0.55,,,-99.99,,2013-01-25 19:03:00,
2013-01-25 14:12:00,19.0,14.0,-100.00,South,180,6.0,8.0,81,0.00,,,-99.99,,2013-01-25 19:12:00,
2013-01-25 14:22:00,19.0,14.0,-100.00,South,175,6.0,9.0,80,0.00,,,-99.99,,2013-01-25 19:22:00,
2013-01-25 14:33:00,19.0,13.0,-100.00,SSE,160,6.0,9.0,78,0.00,,,-99.99,,2013-01-25 19:33:00,
2013-01-25 14:42:00,19.0,13.0,-100.00,SSE,165,6.0,12.0,78,0.00,,,-99.99,,2013-01-25 19:42:00,
2013-01-25 14:52:00,20.0,14.0,-100.00,SSE,155,2.0,7.0,77,0.00,,,-99.99,,2013-01-25 19:52:00,
2013-01-25 15:03:00,20.0,13.0,-100.00,SSE,165,5.0,8.0,76,0.00,,,-99.99,,2013-01-25 20:03:00,
2013-01-25 15:12:00,20.0,13.0,-100.00,SSE,160,3.0,7.0,76,0.00,,,-99.99,,2013-01-25 20:12:00,
2013-01-25 15:22:00,20.0,13.0,-100.00,SSE,165,3.0,9.0,76,0.00,,,-99.99,,2013-01-25 20:22:00,
2013-01-25 15:32:00,19.0,13.0,-100.00,SSE,165,6.0,11.0,75,0.00,,,-99.99,,2013-01-25 20:32:00,
2013-01-25 15:42:00,20.0,13.0,-100.00,SSE,160,4.0,9.0,75,0.00,,,-99.99,,2013-01-25 20:42:00,
2013-01-25 15:52:00,20.0,13.0,-100.00,South,185,4.0,9.0,75,0.00,,,-99.99,,2013-01-25 20:52:00,
2013-01-25 16:02:00,20.0,13.0,-100.00,SSE,160,3.0,7.0,76,0.00,,,-99.99,,2013-01-25 21:02:00,
2013-01-25 16:12:00,19.0,13.0,-100.00,SSE,160,3.0,9.0,76,0.00,,,-99.99,,2013-01-25 21:12:00,
2013-01-25 16:23:00,19.0,13.0,-100.00,South,185,4.0,10.0,76,0.00,,,-99.99,,2013-01-25 21:23:00,
2013-01-25 16:33:00,19.0,13.0,-100.00,South,175,4.0,9.0,77,0.00,,,-99.99,,2013-01-25 21:33:00,
2013-01-25 16:42:00,19.0,13.0,-100.00,South,185,7.0,10.0,76,0.00,,,-99.99,,2013-01-25 21:42:00,
2013-01-25 16:52:00,20.0,13.0,-100.00,SSE,165,2.0,9.0,77,0.00,,,-99.99,,2013-01-25 21:52:00,
2013-01-25 17:03:00,20.0,14.0,-100.00,South,180,4.0,8.0,77,0.00,,,-99.99,,2013-01-25 22:03:00,
2013-01-25 17:12:00,20.0,13.0,-100.00,South,175,4.0,7.0,77,0.00,,,-99.99,,2013-01-25 22:12:00,
2013-01-25 17:22:00,20.0,14.0,-100.00,SSE,155,4.0,7.0,78,0.00,,,-99.99,,2013-01-25 22:22:00,
2013-01-25 17:33:00,20.0,14.0,-100.00,South,180,4.0,9.0,79,0.00,,,-99.99,,2013-01-25 22:33:00,
2013-01-25 17:42:00,20.0,14.0,-100.00,SSE,165,6.0,9.0,79,0.00,,,-99.99,,2013-01-25 22:42:00,
2013-01-25 17:52:00,20.0,14.0,-100.00,South,185,6.0,10.0,79,0.00,,,-99.99,,2013-01-25 22:52:00,
2013-01-25 18:02:00,20.0,14.0,-100.00,South,170,5.0,10.0,79,0.00,,,-99.99,,2013-01-25 23:02:00,
2013-01-25 18:12:00,20.0,14.0,-100.00,SSE,160,4.0,10.0,80,0.00,,,-99.99,,2013-01-25 23:12:00,
2013-01-25 18:22:00,19.0,14.0,-100.00,SSE,165,7.0,10.0,80,0.00,,,-99.99,,2013-01-25 23:22:00,
2013-01-25 18:32:00,19.0,15.0,-100.00,South,170,6.0,10.0,80,0.00,,,-99.99,,2013-01-25 23:32:00,
2013-01-25 18:42:00,20.0,15.0,-100.00,South,180,2.0,6.0,81,0.00,,,-99.99,,2013-01-25 23:42:00,
2013-01-25 18:52:00,20.0,15.0,-100.00,SSW,195,3.0,7.0,81,0.00,,,-99.99,,2013-01-25 23:52:00,
2013-01-25 19:02:00,20.0,15.0,-100.00,West,260,2.0,6.0,81,0.00,,,-99.99,,2013-01-26 00:02:00,
2013-01-25 19:11:00,20.0,15.0,-100.00,South,190,3.0,6.0,81,0.00,,,-99.99,,2013-01-26 00:11:00,
2013-01-25 19:22:00,20.0,15.0,-100.00,SSW,205,4.0,7.0,80,0.00,,,-99.99,,2013-01-26 00:22:00,
2013-01-25 19:32:00,20.0,15.0,-100.00,SSW,195,4.0,7.0,80,0.00,,,-99.99,,2013-01-26 00:32:00,
2013-01-25 19:42:00,20.0,15.0,-100.00,SW,215,3.0,6.0,80,0.00,,,-99.99,,2013-01-26 00:42:00,
2013-01-25 19:52:00,20.0,15.0,-100.00,SSW,210,4.0,6.0,81,0.00,,,-99.99,,2013-01-26 00:52:00,
2013-01-25 20:02:00,20.0,16.0,-100.00,South,185,2.0,7.0,82,0.00,,,-99.99,,2013-01-26 01:02:00,
2013-01-25 20:11:00,20.0,16.0,-100.00,SSW,200,4.0,7.0,83,0.00,,,-99.99,,2013-01-26 01:11:00,
2013-01-25 20:22:00,20.0,16.0,-100.00,South,190,4.0,7.0,84,0.55,,,-99.99,,2013-01-26 01:22:00,
2013-01-25 20:32:00,20.0,17.0,-100.00,SSW,200,4.0,7.0,86,0.00,,,-99.99,,2013-01-26 01:32:00,
2013-01-25 20:42:00,20.0,17.0,-100.00,SSW,200,4.0,9.0,87,0.00,,,-99.99,,2013-01-26 01:42:00,
2013-01-25 20:52:00,20.0,17.0,-100.00,SSW,200,6.0,9.0,88,0.55,,,-99.99,,2013-01-26 01:52:00,
2013-01-25 21:02:00,20.0,17.0,-100.00,SSW,200,5.0,9.0,89,2.24,,,-99.99,,2013-01-26 02:02:00,
2013-01-25 21:11:00,20.0,18.0,-100.00,SSW,195,6.0,9.0,90,1.10,,,-99.99,,2013-01-26 02:11:00,
2013-01-25 21:22:00,20.0,18.0,-100.00,SSW,205,6.0,9.0,91,0.55,,,-99.99,,2013-01-26 02:22:00,
2013-01-25 21:32:00,20.0,18.0,-100.00,SSW,200,7.0,10.0,91,1.10,,,-99.99,,2013-01-26 02:32:00,
2013-01-25 21:42:00,20.0,18.0,-100.00,SSW,205,7.0,11.0,91,11.89,,,-99.99,,2013-01-26 02:42:00,
2013-01-25 21:52:00,20.0,18.0,-100.00,SSW,200,7.0,10.0,92,0.55,,,-99.99,,2013-01-26 02:52:00,
2013-01-25 22:02:00,20.0,18.0,-100.00,SSW,195,7.0,11.0,92,1.10,,,-99.99,,2013-01-26 03:02:00,
2013-01-25 22:11:00,20.0,18.0,-100.00,SSW,200,9.0,11.0,92,0.55,,,-99.99,,2013-01-26 03:11:00,
2013-01-25 22:22:00,20.0,18.0,-100.00,SSW,200,9.0,12.0,92,0.55,,,-99.99,,2013-01-26 03:22:00,
2013-01-25 22:32:00,20.0,19.0,-100.00,SSW,195,8.0,11.0,92,0.00,,,-99.99,,2013-01-26 03:32:00,
2013-01-25 22:43:00,21.0,19.0,-100.00,SSW,200,7.0,11.0,91,0.00,,,-99.99,,2013-01-26 03:43:00,
2013-01-25 22:52:00,21.0,19.0,-100.00,SSW,195,7.0,11.0,91,0.55,,,-99.99,,2013-01-26 03:52:00,
2013-01-25 23:02:00,21.0,19.0,-100.00,SSW,205,6.0,9.0,91,0.00,,,-99.99,,2013-01-26 04:02:00,
2013-01-25 23:12:00,21.0,19.0,-100.00,South,185,6.0,9.0,92,0.00,,,-99.99,,2013-01-26 04:12:00,
2013-01-25 23:21:00,21.0,19.0,-100.00,South,185,7.0,8.0,92,0.00,,,-99.99,,2013-01-26 04:21:00,
2013-01-25 23:32:00,21.0,19.0,-100.00,South,180,5.0,10.0,92,0.00,,,-99.99,,2013-01-26 04:32:00,
2013-01-25 23:42:00,21.0,19.0,-100.00,South,175,4.0,9.0,92,0.00,,,-99.99,,2013-01-26 04:42:00,
2013-01-25 23:52:00,21.0,19.0,-100.00,South,190,6.0,9.0,92,0.00,,,-99.99,,2013-01-26 04:52:00,